Regional Weather Roundup
Issued by NWS Charleston, SC

Current Version | Previous Version | Graphics & Text | Print | Product List | Glossary On
Versions: 1 2 3 4 5 6 7 8 9 10 11 12 13 14 15 16 17 18 19 20 21 22 23 24 25 26 27 28 29 30 31 32 33 34 35 36 37 38 39 40 41 42 43 44 45 46 47 48 49 50
000
ASUS42 KCHS 282025
RWRCHS

REGIONAL WEATHER ROUNDUP
NATIONAL WEATHER SERVICE CHARLESTON SC
300 PM EST FRI NOV 28 2014

NOTE: "FAIR" INDICATES FEW OR NO CLOUDS BELOW 12,000 FEET WITH NO
SIGNIFICANT WEATHER AND/OR OBSTRUCTIONS TO VISIBILITY.

NOT ALL STATIONS ARE QUALITY CONTROLLED BY THE NATIONAL
WEATHER SERVICE. USE DATA WITH CAUTION...ESPECIALLY
DEWPOINT OBSERVATIONS.

SCZ027-030-031-034>040-042>050-282100-
...SOUTHEAST SOUTH CAROLINA...

CITY           SKY/WX    TMP DP  RH WIND       PRES   REMARKS
N CHARLESTON   SUNNY     50  22  33 NW6       30.31F
WATERFRONT PRK   N/A     48 N/A N/A N7          N/A
MOUNT PLEASANT FAIR      48  25  40 CALM      30.31S
JOHNS ISLAND   CLEAR     50  28  43 NE5       30.31F
PINOPOLIS        N/A     52  23  32 CALM      30.24F
MONCKS CORNER  FAIR      48  28  46 N7        30.32S
SUMMERVILLE    FAIR      50  27  40 NW7       30.33R
BEAUFORT MCAS  SUNNY     51  25  36 W3        30.31F
BEAUFORT ARPT  FAIR      50  30  46 N3        30.31S
HILTON HEAD IS SUNNY     48  28  46 N6        30.33F
WALTERBORO     CLEAR     50  18  27 CALM      30.32S
ALLENDALE      FAIR      50  25  37 CALM      30.31S

...SOUTHERN MIDLANDS AND PEE DEE...

CITY           SKY/WX    TMP DP  RH WIND       PRES   REMARKS
GEORGETOWN     NOT AVBL
KINGSTREE      NOT AVBL
ORANGEBURG     SUNNY     48  20  32 CALM      30.31F
BARNWELL       FAIR      48  25  40 CALM      30.32S
AIKEN          FAIR      48  23  37 CALM      30.33S
MANNING        NOT AVBL
COLUMBIA       SUNNY     48  19  31 VRB3      30.31F
SUMTER         SUNNY     47  21  35 VRB2      30.30F
FLORENCE       SUNNY     48  20  32 N7        30.31F
MYRTLE BEACH   SUNNY     46  19  34 N8        30.30F
N MYRTLE BEACH SUNNY     48  22  35 VRB5      30.30S

$$

GAZ063-065-086>088-099>101-113>116-118-119-134>141-150-282100-
...SOUTHEAST GEORGIA...

CITY           SKY/WX    TMP DP  RH WIND       PRES   REMARKS
SAVANNAH ARPT  SUNNY     53  24  32 W6        30.32F
HUNTER AAF     SUNNY     51  25  36 VRB5      30.30F
FORT STEWART   SUNNY     51  28  40 VRB3      30.30F
STATESBORO     NOT AVBL
SYLVANIA       CLEAR     52  28  39 CALM      30.32S
CLAXTON        NOT AVBL

...CSRA...CENTRAL AND FAR SOUTHEAST GEORGIA...

CITY           SKY/WX    TMP DP  RH WIND       PRES   REMARKS
THOMSON        SUNNY     51  32  48 W5        30.35F
AUGUSTA-BUSH   SUNNY     50  20  30 VRB5      30.32F
AUGUSTA-DANIEL SUNNY     49  19  30 VRB6      30.31F
SWAINSBORO     FAIR      52  32  46 W6        30.32S
VIDALIA        SUNNY     52  30  43 CALM      30.31S
HAZLEHURST     FAIR      52  29  40 CALM      30.30S
ALMA           SUNNY     52  27  38 CALM      30.30F
WAYCROSS       SUNNY     55  32  41 NE5       30.31S
JESUP          FAIR      55  32  41 CALM      30.31F
BAXLEY         FAIR      52  28  40 N3        30.30S
BRUNSWICK      SUNNY     52  32  46 E8        30.32S
SAINT SIMONS   SUNNY     49  31  49 E9        30.32F

$$

SCZ027-028-034-036>038-045-046-048>050-GAZ119-141-282100-
...LAKE AND SUPPLEMENTAL COASTAL OBSERVATIONS...

STATION/POSITION TIME  TEMP    WIND        PRES    WAVE   SWELL
                       AIR SEA DIR/SP/G            HT/PER HT/PER/DIR
                 (UTC) (F)     (DEG/KT/KT) (MB)    (FT/S) (FT/S/D)
UPR LAKE MARION  NOT AVBL
WINYAH BAY       2000   47      30/  2     1026.0S
LAKE MURRAY      1900   46     170/  5/  6 1025.7F
ACE BASIN NERRS  2000   48     170/  1     1026.0S
FORT PULASKI     2000   47      70/  5/  6 1026.8F
SAPELO ISLAND    2000   50      80/  5     1026.0F

$$

ANZ835-935-AMZ111-154-330-350-352-354-370-450-454-472-282100-
...C-MAN AND BUOY OBSERVATIONS...

STATION/POSITION TIME  TEMP    WIND        PRES    WAVE   SWELL
                       AIR SEA DIR/SP/G            HT/PER HT/PER/DIR
                 (UTC) (F)     (DEG/KT/KT) (MB)    (FT/S) (FT/S/D)
BUOY 41004       2000   47 72  350/ 14/ 17 1025.7F   5/ 6   3/ 7
BUOY 41008       2000   47 63   30/ 12/ 16 1026.4F   4/ 6   3/ 50/ 6
FOLLY BEACH CMAN 2000   48     350/  2/  3 1026.8F
CAPERS NEARSHORE 1900   48      70/  4/  6   N/A
FRIPP NEARSHORE  NOT AVBL


STATION/POSITION TIME  TEMP    WIND        PRES    WAVE   SWELL
                       AIR SEA DIR/SP/G            HT/PER HT/PER/DIR
                 (UTC) (F)     (DEG/KT/KT) (MB)    (FT/S) (FT/S/D)
5E ST. MARYS GA  2000      61                N/A     3/ 6   2/110/14
FRYING PAN BUOY  2000   45 68  360/ 12/ 16 1026.0F   4/ 6   3/ 40/ 6
BUOY 41025       2000   45     320/ 16/ 21 1024.1R   5/ 7   2/ 80/13
CAPE LOOKOUT NC  2000   43     360/  8/ 11 1025.3R
BUOY 41002       1920   59 72  330/ 17/ 25 1021.6R  10/ 8   5/ 30/13
BUOY 41010       2000   65 77  360/ 17/ 23 1021.9R   7/ 8   5/360/ 8
ST AUGUSTINE FL  2000   52     360/ 19/ 22 1026.4F


$$



USA.gov is the U.S. government's official web portal to all federal, state and local government web resources and services.